Dades meteomassalio
Diari Summary for Gener 20, 2017 Units:  English    Metric   Both
« Previous Day
Next Day »
Diari Semanal Mensual Anual Personalitzat
  Maxima: Minima: Mijana:
Temperatura: 42.3 °F 34.3 °F 38.7 °F
Rosada: 40.6 °F 28.4 °F 36.5 °F
Humitat: 94 % 77 % 92 %
Velocitat del vent: 6.9 mph 0 mph 0.1 mph
Racha vent: 6.9 mph - -
Vent:- - SSW
Pressio: 30.3 in 30.2 in -
Pluja: 0.71 in    
Historical Graphs
 
 
Tabular Data for Gener 20, 2017
Time Temperature Dew Point Pressure Wind Wind Speed Wind Gust Humidity Rainfall Rate (Hourly) solar Conditions
00:02 34.9 °F 28.4 °F 30.3 in Calm     77 % 0 in 0.0 W/m2 CLR
00:07 34.9 °F 28.4 °F 30.3 in Calm     77 % 0 in 0.0 W/m2 CLR
00:12 35.1 °F 28.6 °F 30.3 in Calm     77 % 0 in 0.0 W/m2 CLR
00:17 35.1 °F 28.6 °F 30.3 in Calm     77 % 0 in 0.0 W/m2 CLR
00:22 35.1 °F 28.8 °F 30.3 in Calm     78 % 0 in 0.0 W/m2 CLR
00:28 35.1 °F 28.8 °F 30.3 in Calm     78 % 0 in 0.0 W/m2 CLR
00:33 35.1 °F 29.1 °F 30.3 in Calm     79 % 0 in 0.0 W/m2 CLR
00:38 35.1 °F 29.1 °F 30.2 in Calm     79 % 0 in 0.0 W/m2 CLR
00:43 34.9 °F 29.5 °F 30.2 in Calm     80 % 0 in 0.0 W/m2 CLR
00:48 34.9 °F 29.5 °F 30.2 in Calm     80 % 0 in 0.0 W/m2 CLR
00:53 34.9 °F 29.5 °F 30.2 in Calm     80 % 0 in 0.0 W/m2 CLR
00:58 34.9 °F 29.7 °F 30.2 in Calm     81 % 0 in 0.0 W/m2 CLR
01:03 34.9 °F 30 °F 30.2 in Calm     82 % 0 in 0.0 W/m2 CLR
01:08 34.9 °F 30 °F 30.2 in Calm     82 % 0 in 0.0 W/m2 CLR
01:13 34.9 °F 29.8 °F 30.2 in Calm     82 % 0 in 0.0 W/m2 CLR
01:18 34.9 °F 30.4 °F 30.2 in Calm     83 % 0 in 0.0 W/m2 CLR
01:23 34.9 °F 30.6 °F 30.2 in Calm     84 % 0 in 0.0 W/m2 CLR
01:28 34.9 °F 30.7 °F 30.2 in Calm     85 % 0.01 in 0.0 W/m2 RA
01:33 34.7 °F 30.9 °F 30.2 in Calm     86 % 0.01 in 0.0 W/m2 CLR
01:38 34.7 °F 30.9 °F 30.2 in Calm     86 % 0.02 in 0.0 W/m2 RA
01:43 34.7 °F 31.3 °F 30.2 in Calm     87 % 0.02 in 0.0 W/m2 RA
01:48 34.5 °F 31.1 °F 30.2 in Calm     87 % 0.02 in 0.0 W/m2
01:53 34.5 °F 31.5 °F 30.2 in Calm     88 % 0.02 in 0.0 W/m2 CLR
01:58 34.5 °F 31.3 °F 30.2 in Calm     88 % 0.03 in 0.0 W/m2 RA
02:03 34.3 °F 31.3 °F 30.2 in Calm     88 % 0.03 in 0.0 W/m2 CLR
02:08 34.3 °F 31.5 °F 30.2 in Calm     89 % 0.04 in 0.0 W/m2 RA
02:13 34.3 °F 31.5 °F 30.2 in Calm     89 % 0.04 in 0.0 W/m2
02:18 34.3 °F 31.5 °F 30.2 in Calm     89 % 0.04 in 0.0 W/m2 CLR
02:23 34.3 °F 31.8 °F 30.2 in Calm     90 % 0.04 in 0.0 W/m2 CLR
02:28 34.5 °F 31.8 °F 30.2 in Calm     90 % 0.04 in 0.0 W/m2 RA
02:33 34.5 °F 32.2 °F 30.2 in SW 3.5 mph 3.5 mph 91 % 0.04 in 0.0 W/m2
02:38 34.7 °F 32.4 °F 30.2 in Calm     91 % 0.03 in 0.0 W/m2 CLR
02:43 34.9 °F 32.4 °F 30.2 in Calm     91 % 0.02 in 0.0 W/m2 CLR
02:48 34.9 °F 32.5 °F 30.2 in Calm     91 % 0.02 in 0.0 W/m2 CLR
02:53 35.1 °F 32.7 °F 30.2 in Calm     91 % 0.02 in 0.0 W/m2 CLR
02:58 35.1 °F 32.7 °F 30.2 in Calm     91 % 0.02 in 0.0 W/m2 CLR
03:03 35.2 °F 32.7 °F 30.2 in Calm     91 % 0.02 in 0.0 W/m2 CLR
03:08 35.1 °F 32.7 °F 30.2 in Calm     91 % 0.01 in 0.0 W/m2 CLR
03:13 35.2 °F 33.1 °F 30.2 in Calm     92 % 0.01 in 0.0 W/m2 CLR
03:18 35.2 °F 33.1 °F 30.2 in Calm     92 % 0.02 in 0.0 W/m2 RA
03:23 35.2 °F 33.3 °F 30.2 in Calm     92 % 0.02 in 0.0 W/m2 CLR
03:28 35.2 °F 33.3 °F 30.2 in Calm     92 % 0.01 in 0.0 W/m2 CLR
03:33 35.2 °F 33.3 °F 30.2 in Calm     92 % 0.01 in 0.0 W/m2 CLR
03:38 35.2 °F 33.3 °F 30.2 in Calm     92 % 0.02 in 0.0 W/m2 RA
03:43 35.2 °F 33.3 °F 30.2 in Calm     92 % 0.02 in 0.0 W/m2
03:48 35.4 °F 33.3 °F 30.2 in Calm     92 % 0.02 in 0.0 W/m2 CLR
03:53 35.4 °F 33.4 °F 30.2 in Calm     92 % 0.02 in 0.0 W/m2 CLR
03:58 35.8 °F 33.6 °F 30.2 in Calm     92 % 0.02 in 0.0 W/m2 RA
04:03 36 °F 33.8 °F 30.2 in Calm     92 % 0.02 in 0.0 W/m2
04:08 36 °F 33.8 °F 30.2 in Calm     92 % 0.02 in 0.0 W/m2 CLR
04:13 36 °F 33.8 °F 30.2 in Calm     92 % 0.02 in 0.0 W/m2 CLR
04:18 36 °F 33.8 °F 30.2 in Calm     92 % 0.02 in 0.0 W/m2 RA
04:23 36 °F 33.8 °F 30.2 in Calm     92 % 0.02 in 0.0 W/m2
04:28 36 °F 33.8 °F 30.2 in Calm     92 % 0.02 in 0.0 W/m2 CLR
04:33 36 °F 34 °F 30.2 in Calm     92 % 0.03 in 0.0 W/m2 RA
04:38 36 °F 34 °F 30.2 in Calm     92 % 0.02 in 0.0 W/m2
04:43 36.1 °F 34 °F 30.2 in Calm     92 % 0.02 in 0.0 W/m2 CLR
04:48 36.1 °F 34 °F 30.2 in Calm     92 % 0.02 in 0.0 W/m2 CLR
04:53 36.1 °F 34 °F 30.2 in Calm     92 % 0.02 in 0.0 W/m2 CLR
04:58 36.1 °F 34 °F 30.2 in Calm     92 % 0.02 in 0.0 W/m2 RA
05:03 36 °F 34 °F 30.2 in Calm     92 % 0.02 in 0.0 W/m2
05:08 36 °F 34 °F 30.2 in Calm     92 % 0.02 in 0.0 W/m2 CLR
05:13 36 °F 34 °F 30.2 in Calm     92 % 0.02 in 0.0 W/m2 CLR
05:18 36 °F 34 °F 30.2 in Calm     92 % 0.02 in 0.0 W/m2 CLR
05:23 36 °F 34 °F 30.2 in Calm     92 % 0.02 in 0.0 W/m2 RA
05:28 36 °F 33.8 °F 30.2 in Calm     92 % 0.03 in 0.0 W/m2 RA
05:33 36 °F 33.8 °F 30.2 in Calm     92 % 0.02 in 0.0 W/m2
05:38 36 °F 33.8 °F 30.2 in Calm     92 % 0.02 in 0.0 W/m2 CLR
05:43 36 °F 34 °F 30.2 in Calm     92 % 0.03 in 0.0 W/m2 RA
05:48 36 °F 33.8 °F 30.2 in Calm     92 % 0.04 in 0.0 W/m2 RA
05:53 36 °F 33.8 °F 30.2 in Calm     92 % 0.04 in 0.0 W/m2
05:59 35.8 °F 34 °F 30.2 in Calm     93 % 0.03 in 0.0 W/m2 CLR
06:04 35.8 °F 34 °F 30.2 in Calm     93 % 0.03 in 0.0 W/m2 CLR
06:09 36 °F 34.2 °F 30.2 in Calm     93 % 0.04 in 0.0 W/m2 RA
06:14 36 °F 34.2 °F 30.2 in Calm     93 % 0.04 in 0.0 W/m2
06:19 36 °F 34.2 °F 30.2 in Calm     93 % 0.05 in 0.0 W/m2 RA
06:24 36.1 °F 34.3 °F 30.2 in Calm     93 % 0.04 in 0.0 W/m2 CLR
06:29 36.1 °F 34.3 °F 30.2 in Calm     93 % 0.03 in 0.0 W/m2 CLR
06:34 36.1 °F 34.3 °F 30.2 in Calm     93 % 0.04 in 0.0 W/m2 RA
06:39 36.1 °F 34.3 °F 30.2 in Calm     93 % 0.05 in 0.0 W/m2 RA
06:44 36.1 °F 34.3 °F 30.2 in Calm     93 % 0.04 in 0.0 W/m2 CLR
06:49 36.1 °F 34.3 °F 30.2 in Calm     93 % 0.04 in 0.0 W/m2 RA
06:54 36.1 °F 34.3 °F 30.2 in Calm     93 % 0.05 in 0.0 W/m2 RA
06:59 36.1 °F 34.3 °F 30.2 in Calm     93 % 0.06 in 0.0 W/m2 RA
07:04 36.3 °F 34.5 °F 30.2 in Calm     93 % 0.06 in 0.0 W/m2
07:09 36.3 °F 34.5 °F 30.2 in Calm     93 % 0.06 in 0.0 W/m2 RA
07:14 36.3 °F 34.5 °F 30.2 in Calm     93 % 0.06 in 0.0 W/m2 RA
07:19 36.3 °F 34.5 °F 30.2 in Calm     93 % 0.06 in 0.0 W/m2
07:24 36.5 °F 34.7 °F 30.2 in Calm     93 % 0.06 in 0.0 W/m2 RA
07:29 36.5 °F 34.7 °F 30.2 in Calm     93 % 0.06 in 0.0 W/m2
07:34 36.5 °F 34.7 °F 30.2 in Calm     93 % 0.06 in 0.0 W/m2 CLR
07:39 36.7 °F 34.9 °F 30.2 in Calm     93 % 0.06 in 0.0 W/m2 RA
07:44 36.7 °F 34.9 °F 30.2 in Calm     93 % 0.06 in 0.0 W/m2
07:49 36.9 °F 35.1 °F 30.2 in Calm     93 % 0.06 in 0.0 W/m2 RA
07:54 36.9 °F 35.1 °F 30.2 in Calm     93 % 0.05 in 0.0 W/m2
07:59 36.9 °F 35.1 °F 30.2 in Calm     93 % 0.05 in 0.0 W/m2 RA
08:04 37 °F 35.2 °F 30.2 in Calm     93 % 0.06 in 0.0 W/m2 RA
08:09 37 °F 35.2 °F 30.2 in Calm     93 % 0.05 in 0.0 W/m2
08:14 37 °F 35.2 °F 30.2 in Calm     93 % 0.04 in 0.0 W/m2 CLR
08:19 36.9 °F 35.1 °F 30.2 in Calm     93 % 0.05 in 0.0 W/m2 RA
08:24 36.9 °F 35.1 °F 30.2 in Calm     93 % 0.04 in 0.0 W/m2 CLR
08:29 36.9 °F 35.1 °F 30.2 in Calm     93 % 0.04 in 0.0 W/m2 OVC
08:34 37 °F 35.2 °F 30.2 in Calm     93 % 0.04 in 0.0 W/m2 OVC
08:39 37 °F 35.2 °F 30.2 in Calm     93 % 0.04 in 0.0 W/m2 RA
08:44 37 °F 35.2 °F 30.2 in Calm     93 % 0.04 in 0.0 W/m2 CLR
08:49 37 °F 35.2 °F 30.2 in Calm     93 % 0.03 in 5.0 W/m2 OVC
08:54 37.2 °F 35.6 °F 30.2 in Calm     94 % 0.03 in 9.0 W/m2 OVC
08:59 37.2 °F 35.8 °F 30.2 in Calm     94 % 0.03 in 11.0 W/m2 RA
09:04 37.2 °F 35.8 °F 30.2 in Calm     94 % 0.03 in 9.0 W/m2 RA
09:09 37.4 °F 35.8 °F 30.2 in Calm     94 % 0.03 in 9.0 W/m2
09:14 37.6 °F 36 °F 30.2 in Calm     94 % 0.04 in 11.0 W/m2 RA
09:19 37.6 °F 35.8 °F 30.2 in Calm     93 % 0.03 in 14.0 W/m2
09:24 37.6 °F 35.8 °F 30.2 in Calm     93 % 0.04 in 16.0 W/m2 RA
09:29 37.8 °F 36 °F 30.2 in Calm     93 % 0.04 in 19.0 W/m2 CLR
09:34 37.8 °F 36 °F 30.2 in Calm     93 % 0.05 in 21.0 W/m2 RA
09:39 37.8 °F 36 °F 30.2 in Calm     93 % 0.05 in 23.0 W/m2 RA
09:44 37.8 °F 36 °F 30.2 in Calm     93 % 0.05 in 25.0 W/m2 BKN
09:49 37.6 °F 35.8 °F 30.2 in Calm     93 % 0.06 in 19.0 W/m2 RA
09:54 37.6 °F 35.8 °F 30.2 in Calm     93 % 0.06 in 16.0 W/m2 RA
09:59 37.6 °F 35.8 °F 30.2 in Calm     93 % 0.06 in 14.0 W/m2 RA
10:04 37.8 °F 36 °F 30.2 in Calm     93 % 0.06 in 16.0 W/m2 RA
10:09 37.8 °F 36 °F 30.2 in Calm     93 % 0.06 in 16.0 W/m2 OVC
10:14 37.8 °F 36 °F 30.2 in Calm     93 % 0.06 in 18.0 W/m2 OVC
10:19 37.8 °F 36 °F 30.2 in Calm     93 % 0.06 in 19.0 W/m2 OVC
10:24 37.8 °F 36 °F 30.2 in Calm     93 % 0.05 in 18.0 W/m2 OVC
10:29 37.8 °F 36 °F 30.2 in Calm     93 % 0.05 in 21.0 W/m2 OVC
10:34 37.8 °F 36 °F 30.2 in Calm     93 % 0.04 in 21.0 W/m2 OVC
10:39 37.8 °F 36 °F 30.2 in Calm     93 % 0.03 in 23.0 W/m2 OVC
10:40 37.8 °F 36 °F 30.2 in Calm     93 % 0.03 in 23.0 W/m2 OVC
10:45 37.8 °F 36 °F 30.2 in Calm     93 % 0.03 in 26.0 W/m2 OVC
10:50 37.9 °F 36.3 °F 30.2 in Calm     94 % 0.03 in 40.0 W/m2 RA
10:55 37.9 °F 36.3 °F 30.2 in Calm     94 % 0.02 in 35.0 W/m2 BKN
11:00 38.1 °F 36.5 °F 30.2 in Calm     94 % 0.02 in 35.0 W/m2 BKN
11:05 38.3 °F 36.7 °F 30.2 in Calm     94 % 0.01 in 44.0 W/m2 BKN
11:10 38.5 °F 36.9 °F 30.2 in Calm     94 % 0.01 in 53.0 W/m2 BKN
11:15 38.5 °F 36.9 °F 30.2 in Calm     94 % 0.01 in 47.0 W/m2 BKN
11:20 38.7 °F 37 °F 30.2 in Calm     94 % 0.01 in 51.0 W/m2 BKN
11:25 38.7 °F 37 °F 30.2 in Calm     94 % 0.01 in 39.0 W/m2 BKN
11:30 38.7 °F 37 °F 30.2 in Calm     94 % 0.01 in 37.0 W/m2 BKN
11:35 38.7 °F 37 °F 30.2 in Calm     94 % 0.01 in 32.0 W/m2 BKN
11:40 38.7 °F 37 °F 30.2 in Calm     94 % 0.02 in 28.0 W/m2 RA
11:45 38.7 °F 37 °F 30.2 in Calm     94 % 0.02 in 26.0 W/m2 BKN
11:50 38.8 °F 37.2 °F 30.2 in Calm     94 % 0.01 in 39.0 W/m2 BKN
11:55 38.8 °F 37.2 °F 30.2 in Calm     94 % 0.01 in 44.0 W/m2 BKN
12:00 38.8 °F 37.2 °F 30.2 in Calm     94 % 0.01 in 40.0 W/m2 BKN
12:05 39 °F 37.6 °F 30.2 in Calm     94 % 0.01 in 39.0 W/m2 BKN
12:10 39.2 °F 37.6 °F 30.2 in Calm     94 % 0.01 in 42.0 W/m2 BKN
12:15 39.2 °F 37.6 °F 30.2 in Calm     94 % 0.01 in 58.0 W/m2 BKN
12:20 39.2 °F 37.6 °F 30.2 in Calm     94 % 0.02 in 84.0 W/m2 RA
12:25 39.4 °F 37.8 °F 30.2 in Calm     94 % 0.02 in 76.0 W/m2 BKN
12:30 39.6 °F 37.9 °F 30.2 in Calm     94 % 0.02 in 77.0 W/m2 RA
12:35 39.7 °F 38.1 °F 30.2 in Calm     94 % 0.03 in 70.0 W/m2 RA
12:40 39.6 °F 37.9 °F 30.2 in WNW 3.5 mph 3.5 mph 94 % 0.02 in 49.0 W/m2 BKN
12:45 39.6 °F 37.9 °F 30.2 in Calm     94 % 0.02 in 74.0 W/m2 BKN
12:50 39.7 °F 38.1 °F 30.2 in Calm     94 % 0.03 in 63.0 W/m2 RA
12:55 39.7 °F 38.1 °F 30.2 in Calm     94 % 0.03 in 74.0 W/m2 BKN
13:00 39.9 °F 38.5 °F 30.2 in Calm     94 % 0.03 in 90.0 W/m2 BKN
13:05 40.1 °F 38.5 °F 30.2 in Calm     94 % 0.04 in 63.0 W/m2 RA
13:10 40.1 °F 38.1 °F 30.2 in Calm     93 % 0.05 in 47.0 W/m2 RA
13:15 39.9 °F 38.1 °F 30.2 in Calm     93 % 0.05 in 37.0 W/m2 BKN
13:20 39.9 °F 38.1 °F 30.2 in Calm     93 % 0.04 in 49.0 W/m2 BKN
13:25 39.9 °F 38.1 °F 30.2 in Calm     93 % 0.04 in 37.0 W/m2 BKN
13:30 40.1 °F 38.1 °F 30.2 in Calm     93 % 0.03 in 46.0 W/m2 BKN
13:35 40.3 °F 38.3 °F 30.2 in Calm     93 % 0.02 in 39.0 W/m2 BKN
13:40 40.3 °F 38.3 °F 30.2 in Calm     93 % 0.03 in 49.0 W/m2 RA
13:45 40.3 °F 38.5 °F 30.2 in Calm     93 % 0.03 in 42.0 W/m2 BKN
13:50 40.5 °F 38.5 °F 30.2 in Calm     93 % 0.02 in 33.0 W/m2 BKN
13:55 40.5 °F 38.7 °F 30.2 in Calm     93 % 0.02 in 37.0 W/m2 BKN
14:00 40.5 °F 38.7 °F 30.2 in Calm     93 % 0.02 in 32.0 W/m2 BKN
14:05 40.5 °F 38.7 °F 30.2 in Calm     93 % 0.02 in 25.0 W/m2 BKN
14:10 40.5 °F 38.5 °F 30.2 in Calm     93 % 0.01 in 26.0 W/m2 BKN
14:15 40.5 °F 38.5 °F 30.2 in Calm     93 % 0.02 in 28.0 W/m2 RA
14:20 40.5 °F 38.5 °F 30.2 in Calm     93 % 0.02 in 21.0 W/m2 BKN
14:25 40.3 °F 38.5 °F 30.2 in Calm     93 % 0.02 in 19.0 W/m2 OVC
14:30 40.3 °F 38.5 °F 30.2 in Calm     93 % 0.02 in 25.0 W/m2 OVC
14:35 40.3 °F 38.5 °F 30.2 in Calm     93 % 0.02 in 28.0 W/m2 RA
14:40 40.5 °F 38.8 °F 30.2 in Calm     94 % 0.02 in 37.0 W/m2 BKN
14:45 40.5 °F 38.7 °F 30.2 in Calm     93 % 0.02 in 39.0 W/m2 RA
14:50 40.6 °F 38.7 °F 30.2 in Calm     93 % 0.02 in 47.0 W/m2 BKN
14:55 40.6 °F 38.7 °F 30.2 in Calm     93 % 0.03 in 51.0 W/m2 RA
15:00 40.6 °F 38.8 °F 30.2 in Calm     93 % 0.03 in 53.0 W/m2 BKN
15:05 40.6 °F 38.8 °F 30.2 in Calm     93 % 0.04 in 63.0 W/m2 RA
15:10 40.8 °F 38.8 °F 30.2 in Calm     93 % 0.05 in 54.0 W/m2 RA
15:15 41 °F 39 °F 30.2 in Calm     93 % 0.04 in 44.0 W/m2 BKN
15:20 41.2 °F 39.6 °F 30.2 in Calm     94 % 0.05 in 35.0 W/m2 RA
15:25 41.4 °F 39.7 °F 30.2 in Calm     94 % 0.05 in 30.0 W/m2 BKN
15:30 41.4 °F 39.6 °F 30.2 in Calm     93 % 0.05 in 25.0 W/m2 BKN
15:35 41.5 °F 39.9 °F 30.2 in Calm     94 % 0.04 in 33.0 W/m2 BKN
15:40 41.7 °F 40.3 °F 30.2 in Calm     94 % 0.05 in 39.0 W/m2 RA
15:45 41.7 °F 39.9 °F 30.2 in Calm     93 % 0.04 in 39.0 W/m2 BKN
15:50 41.7 °F 39.9 °F 30.2 in Calm     93 % 0.05 in 26.0 W/m2 RA
15:55 41.7 °F 39.9 °F 30.2 in Calm     93 % 0.04 in 19.0 W/m2 BKN
16:00 41.7 °F 39.7 °F 30.2 in Calm     93 % 0.06 in 19.0 W/m2 RA
16:05 41.7 °F 39.7 °F 30.2 in Calm     93 % 0.05 in 19.0 W/m2 BKN
16:10 41.5 °F 39.7 °F 30.2 in Calm     93 % 0.05 in 21.0 W/m2 RA
16:40 41.5 °F 39.7 °F 30.2 in Calm     93 % 0.06 in 12.0 W/m2 RA
16:46 41.5 °F 39.7 °F 30.2 in Calm     93 % 0.08 in 14.0 W/m2 RA
16:50 41.5 °F 39.7 °F 30.2 in Calm     93 % 0.08 in 11.0 W/m2 RA
16:55 41.5 °F 39.6 °F 30.2 in Calm     93 % 0.09 in 7.0 W/m2 RA
17:01 41.4 °F 39.6 °F 30.2 in Calm     93 % 0.07 in 9.0 W/m2
17:06 41.4 °F 39.6 °F 30.2 in Calm     93 % 0.07 in 9.0 W/m2 CLR
17:11 41.4 °F 39.6 °F 30.2 in Calm     93 % 0.07 in 11.0 W/m2 RA
17:16 41.4 °F 39.4 °F 30.2 in Calm     93 % 0.06 in 9.0 W/m2 CLR
17:21 41.2 °F 39.4 °F 30.2 in Calm     93 % 0.06 in 7.0 W/m2 RA
17:26 41.2 °F 39.2 °F 30.2 in Calm     93 % 0.06 in 7.0 W/m2 CLR
17:31 41.2 °F 39.4 °F 30.2 in Calm     93 % 0.06 in 5.0 W/m2 RA
17:41 41.4 °F 39.7 °F 30.2 in Calm     94 % 0.06 in 0.0 W/m2 OVC
17:46 41.4 °F 39.7 °F 30.2 in Calm     94 % 0.04 in 0.0 W/m2 OVC
17:51 41.4 °F 39.7 °F 30.2 in Calm     94 % 0.03 in 0.0 W/m2 OVC
17:56 41.4 °F 39.4 °F 30.2 in Calm     93 % 0.02 in 0.0 W/m2 OVC
18:01 41.4 °F 39.4 °F 30.2 in Calm     93 % 0.02 in 0.0 W/m2 OVC
18:06 41.2 °F 39.4 °F 30.2 in Calm     93 % 0.02 in 0.0 W/m2 CLR
18:11 41.2 °F 39.6 °F 30.2 in Calm     94 % 0.02 in 0.0 W/m2 RA
18:16 41.2 °F 39.6 °F 30.2 in Calm     94 % 0.02 in 0.0 W/m2
18:21 41.2 °F 39.6 °F 30.2 in Calm     94 % 0.02 in 0.0 W/m2 CLR
18:26 41 °F 39.4 °F 30.2 in Calm     94 % 0.02 in 0.0 W/m2 CLR
18:31 41 °F 39.4 °F 30.2 in Calm     94 % 0.01 in 0.0 W/m2 CLR
18:36 41 °F 39.4 °F 30.2 in Calm     94 % 0.01 in 0.0 W/m2 CLR
18:41 40.8 °F 39.4 °F 30.2 in Calm     94 % 0.01 in 0.0 W/m2 CLR
18:46 41 °F 39.4 °F 30.2 in Calm     94 % 0.02 in 0.0 W/m2 RA
18:51 41 °F 39.4 °F 30.2 in Calm     94 % 0.02 in 0.0 W/m2 CLR
18:56 41 °F 39.4 °F 30.2 in Calm     94 % 0.02 in 0.0 W/m2 CLR
19:01 40.8 °F 39.4 °F 30.2 in Calm     94 % 0.02 in 0.0 W/m2 RA
19:06 40.8 °F 39.4 °F 30.2 in Calm     94 % 0.02 in 0.0 W/m2 CLR
19:11 40.8 °F 39.4 °F 30.2 in Calm     94 % 0.02 in 0.0 W/m2 RA
19:16 40.8 °F 39.4 °F 30.2 in Calm     94 % 0.02 in 0.0 W/m2 CLR
19:22 41 °F 39.4 °F 30.2 in Calm     94 % 0.02 in 0.0 W/m2 CLR
19:27 41 °F 39.4 °F 30.2 in Calm     94 % 0.02 in 0.0 W/m2 CLR
19:32 41 °F 39.4 °F 30.2 in Calm     94 % 0.03 in 0.0 W/m2 RA
19:37 41 °F 39.4 °F 30.2 in Calm     94 % 0.04 in 0.0 W/m2 RA
19:42 41 °F 39.4 °F 30.2 in Calm     94 % 0.04 in 0.0 W/m2
19:47 41 °F 39.4 °F 30.2 in Calm     94 % 0.03 in 0.0 W/m2 CLR
19:52 40.8 °F 39.4 °F 30.2 in Calm     94 % 0.03 in 0.0 W/m2 CLR
19:57 40.8 °F 39.2 °F 30.2 in Calm     94 % 0.04 in 0.0 W/m2 RA
20:02 40.8 °F 39.2 °F 30.2 in Calm     94 % 0.04 in 0.0 W/m2 RA
20:07 40.8 °F 39.2 °F 30.2 in Calm     94 % 0.05 in 0.0 W/m2 RA
20:12 40.8 °F 39.2 °F 30.2 in Calm     94 % 0.04 in 0.0 W/m2
20:17 40.8 °F 39.2 °F 30.2 in Calm     94 % 0.06 in 0.0 W/m2 RA
20:22 41.2 °F 39.6 °F 30.2 in East 6.9 mph 6.9 mph 94 % 0.06 in 0.0 W/m2 RA
20:27 41.5 °F 39.9 °F 30.2 in Calm     94 % 0.07 in 0.0 W/m2 RA
20:32 41.7 °F 40.3 °F 30.2 in Calm     94 % 0.07 in 0.0 W/m2 RA
20:37 42.1 °F 40.5 °F 30.2 in Calm     94 % 0.07 in 0.0 W/m2 RA
20:42 42.1 °F 40.5 °F 30.2 in Calm     94 % 0.07 in 0.0 W/m2
20:47 42.1 °F 40.5 °F 30.2 in Calm     94 % 0.07 in 0.0 W/m2 CLR
20:52 42.3 °F 40.6 °F 30.2 in Calm     94 % 0.06 in 0.0 W/m2 CLR
20:57 42.3 °F 40.6 °F 30.2 in Calm     94 % 0.06 in 0.0 W/m2 CLR
21:02 42.3 °F 40.6 °F 30.2 in Calm     94 % 0.06 in 0.0 W/m2 RA
21:07 42.3 °F 40.6 °F 30.2 in Calm     94 % 0.06 in 0.0 W/m2
21:12 42.1 °F 40.5 °F 30.2 in Calm     94 % 0.06 in 0.0 W/m2 CLR
21:17 42.1 °F 40.3 °F 30.2 in Calm     93 % 0.04 in 0.0 W/m2 CLR
21:22 42.1 °F 40.1 °F 30.2 in Calm     93 % 0.03 in 0.0 W/m2 CLR
21:27 41.9 °F 39.9 °F 30.2 in Calm     93 % 0.02 in 0.0 W/m2 CLR
21:32 41.7 °F 39.9 °F 30.2 in Calm     93 % 0.02 in 0.0 W/m2 CLR
21:37 41.7 °F 39.9 °F 30.2 in Calm     93 % 0.01 in 0.0 W/m2 CLR
21:42 41.7 °F 39.7 °F 30.2 in Calm     93 % 0.01 in 0.0 W/m2 CLR
21:47 41.7 °F 40.1 °F 30.2 in Calm     94 % 0.01 in 0.0 W/m2 CLR
21:52 41.5 °F 39.9 °F 30.2 in Calm     94 % 0.01 in 0.0 W/m2 CLR
21:57 41.5 °F 39.9 °F 30.2 in Calm     94 % 0.01 in 0.0 W/m2 CLR
22:02 41.5 °F 39.9 °F 30.2 in Calm     94 % 0 in 0.0 W/m2 CLR
22:07 41.5 °F 39.9 °F 30.2 in Calm     94 % 0 in 0.0 W/m2 CLR
22:12 41.5 °F 39.9 °F 30.2 in Calm     94 % 0 in 0.0 W/m2 CLR
22:17 41.5 °F 39.9 °F 30.2 in Calm     94 % 0 in 0.0 W/m2 CLR
22:22 41.5 °F 39.9 °F 30.2 in Calm     94 % 0 in 0.0 W/m2 CLR
22:27 41.5 °F 39.9 °F 30.2 in Calm     94 % 0 in 0.0 W/m2 CLR
22:32 41.5 °F 39.9 °F 30.2 in Calm     94 % 0 in 0.0 W/m2 CLR
22:37 41.5 °F 39.9 °F 30.2 in Calm     94 % 0 in 0.0 W/m2 CLR
22:42 41.5 °F 39.9 °F 30.2 in Calm     94 % 0 in 0.0 W/m2 CLR
22:47 41.5 °F 39.9 °F 30.2 in Calm     94 % 0 in 0.0 W/m2 CLR
22:52 41.5 °F 39.9 °F 30.2 in Calm     94 % 0 in 0.0 W/m2 CLR
22:57 41.5 °F 39.9 °F 30.2 in Calm     94 % 0 in 0.0 W/m2 CLR
23:02 41.4 °F 39.7 °F 30.2 in Calm     94 % 0 in 0.0 W/m2 CLR
23:07 41.2 °F 39.6 °F 30.2 in Calm     94 % 0 in 0.0 W/m2 CLR
23:12 41.2 °F 39.6 °F 30.2 in Calm     94 % 0 in 0.0 W/m2 CLR
23:17 41.2 °F 39.6 °F 30.2 in Calm     94 % 0 in 0.0 W/m2 CLR
23:22 41.2 °F 39.6 °F 30.2 in Calm     94 % 0 in 0.0 W/m2 CLR
23:27 41.2 °F 39.6 °F 30.2 in Calm     94 % 0 in 0.0 W/m2 CLR
23:32 41.2 °F 39.6 °F 30.2 in Calm     94 % 0 in 0.0 W/m2 CLR
23:37 41.2 °F 39.6 °F 30.2 in Calm     94 % 0 in 0.0 W/m2 CLR
23:42 41.2 °F 39.6 °F 30.2 in Calm     94 % 0 in 0.0 W/m2 CLR
23:47 41.2 °F 39.6 °F 30.2 in Calm     94 % 0 in 0.0 W/m2 CLR
23:52 41 °F 39.4 °F 30.2 in Calm     94 % 0 in 0.0 W/m2 CLR
23:57 41 °F 39.4 °F 30.2 in Calm     94 % 0 in 0.0 W/m2 CLR
Lo Temps de Massalio
Compliments of Weather Underground - 1.25 mb